![]() |
EMODnet Physics ERDDAP
Easier access to scientific data |
log in|
Brought to you by EMODnet Physics |
| Dataset Title: | NDBC - Collection of dew point temperature (DEWT) TimeSeries - IN SITU MultiPointTimeSeriesObservation
|
| Institution: | NDBC (Dataset ID: TS_DEWT_NDBC) |
| Information: | Summary
| License
| FGDC
| ISO 19115
| Metadata
| Background
| Subset
| Data Access Form
| Make a graph
|
| Name | Last modified | Size | Description | |
|---|---|---|---|---|
| Parent Directory | - | - | ||
| MTBF1_TS_DEWT_012015.nc | 19-Dec-2024 14:28 | 432783 | ||
| MTBF1_TS_DEWT_012017.nc | 19-Dec-2024 14:38 | 450030 | ||
| MTBF1_TS_DEWT_012019.nc | 19-Dec-2024 14:49 | 446500 | ||
| MTBF1_TS_DEWT_012020.nc | 19-Dec-2024 14:55 | 425934 | ||
| MTBF1_TS_DEWT_012021.nc | 19-Dec-2024 15:00 | 449508 | ||
| MTBF1_TS_DEWT_012022.nc | 19-Dec-2024 15:05 | 449065 | ||
| MTBF1_TS_DEWT_012023.nc | 19-Dec-2024 15:10 | 3982912 | ||
| MTBF1_TS_DEWT_012025.nc | 07-Feb-2025 10:38 | 4724329 | ||
| MTBF1_TS_DEWT_012026.nc | 15-Jan-2026 05:01 | 443622 | ||
| MTBF1_TS_DEWT_022015.nc | 19-Dec-2024 14:28 | 450699 | ||
| MTBF1_TS_DEWT_022017.nc | 19-Dec-2024 14:39 | 451960 | ||
| MTBF1_TS_DEWT_022018.nc | 19-Dec-2024 14:44 | 451786 | ||
| MTBF1_TS_DEWT_022019.nc | 19-Dec-2024 14:50 | 451563 | ||
| MTBF1_TS_DEWT_022020.nc | 19-Dec-2024 14:55 | 452338 | ||
| MTBF1_TS_DEWT_022021.nc | 19-Dec-2024 15:00 | 451354 | ||
| MTBF1_TS_DEWT_022022.nc | 19-Dec-2024 15:06 | 429763 | ||
| MTBF1_TS_DEWT_022023.nc | 19-Dec-2024 15:11 | 429819 | ||
| MTBF1_TS_DEWT_022025.nc | 01-Mar-2025 05:38 | 429652 | ||
| MTBF1_TS_DEWT_022026.nc | 16-Feb-2026 05:17 | 448378 | ||
| MTBF1_TS_DEWT_032014.nc | 19-Dec-2024 14:23 | 447936 | ||
| MTBF1_TS_DEWT_032015.nc | 19-Dec-2024 14:29 | 450641 | ||
| MTBF1_TS_DEWT_032016.nc | 19-Dec-2024 14:34 | 450049 | ||
| MTBF1_TS_DEWT_032017.nc | 19-Dec-2024 14:39 | 450156 | ||
| MTBF1_TS_DEWT_032018.nc | 19-Dec-2024 14:45 | 450185 | ||
| MTBF1_TS_DEWT_032019.nc | 19-Dec-2024 14:50 | 449612 | ||
| MTBF1_TS_DEWT_032020.nc | 19-Dec-2024 14:55 | 4086724 | ||
| MTBF1_TS_DEWT_032021.nc | 19-Dec-2024 15:01 | 4888352 | ||
| MTBF1_TS_DEWT_032022.nc | 19-Dec-2024 15:06 | 1664515 | ||
| MTBF1_TS_DEWT_032023.nc | 19-Dec-2024 15:11 | 1679230 | ||
| MTBF1_TS_DEWT_032025.nc | 02-Apr-2025 04:11 | 986300 | ||
| MTBF1_TS_DEWT_032026.nc | 25-Mar-2026 07:57 | 1670770 | ||
| MTBF1_TS_DEWT_042014.nc | 19-Dec-2024 14:24 | 1622745 | ||
| MTBF1_TS_DEWT_042015.nc | 19-Dec-2024 14:29 | 1831047 | ||
| MTBF1_TS_DEWT_042017.nc | 19-Dec-2024 14:40 | 1664843 | ||
| MTBF1_TS_DEWT_042018.nc | 19-Dec-2024 14:45 | 1645628 | ||
| MTBF1_TS_DEWT_042019.nc | 19-Dec-2024 14:51 | 1647962 | ||
| MTBF1_TS_DEWT_042020.nc | 19-Dec-2024 14:56 | 1639199 | ||
| MTBF1_TS_DEWT_042021.nc | 19-Dec-2024 15:01 | 1284032 | ||
| MTBF1_TS_DEWT_042022.nc | 19-Dec-2024 15:07 | 1660040 | ||
| MTBF1_TS_DEWT_042023.nc | 19-Dec-2024 15:12 | 1553758 | ||
| MTBF1_TS_DEWT_042025.nc | 01-May-2025 06:14 | 1656566 | ||
| MTBF1_TS_DEWT_052014.nc | 19-Dec-2024 14:24 | 1822121 | ||
| MTBF1_TS_DEWT_052015.nc | 19-Dec-2024 14:30 | 993055 | ||
| MTBF1_TS_DEWT_052017.nc | 19-Dec-2024 14:40 | 1288416 | ||
| MTBF1_TS_DEWT_052018.nc | 19-Dec-2024 14:46 | 1826106 | ||
| MTBF1_TS_DEWT_052019.nc | 19-Dec-2024 14:51 | 1310032 | ||
| MTBF1_TS_DEWT_052020.nc | 19-Dec-2024 14:56 | 1835496 | ||
| MTBF1_TS_DEWT_052021.nc | 19-Dec-2024 15:02 | 1828180 | ||
| MTBF1_TS_DEWT_052022.nc | 19-Dec-2024 15:07 | 1673983 | ||
| MTBF1_TS_DEWT_052023.nc | 19-Dec-2024 15:12 | 1664129 | ||
| MTBF1_TS_DEWT_052025.nc | 01-Jun-2025 08:31 | 1672458 | ||
| MTBF1_TS_DEWT_062014.nc | 19-Dec-2024 14:25 | 1671886 | ||
| MTBF1_TS_DEWT_062015.nc | 19-Dec-2024 14:30 | 1670946 | ||
| MTBF1_TS_DEWT_062017.nc | 19-Dec-2024 14:41 | 1678704 | ||
| MTBF1_TS_DEWT_062018.nc | 19-Dec-2024 14:46 | 1645985 | ||
| MTBF1_TS_DEWT_062019.nc | 19-Dec-2024 14:52 | 1668484 | ||
| MTBF1_TS_DEWT_062020.nc | 19-Dec-2024 14:57 | 1789275 | ||
| MTBF1_TS_DEWT_062021.nc | 19-Dec-2024 15:02 | 431366 | ||
| MTBF1_TS_DEWT_062022.nc | 19-Dec-2024 15:07 | 1830019 | ||
| MTBF1_TS_DEWT_062023.nc | 19-Dec-2024 15:13 | 1818431 | ||
| MTBF1_TS_DEWT_062025.nc | 01-Jul-2025 05:50 | 1677504 | ||
| MTBF1_TS_DEWT_072014.nc | 19-Dec-2024 14:25 | 1829511 | ||
| MTBF1_TS_DEWT_072015.nc | 19-Dec-2024 14:31 | 1669004 | ||
| MTBF1_TS_DEWT_072018.nc | 19-Dec-2024 14:47 | 1822336 | ||
| MTBF1_TS_DEWT_072019.nc | 19-Dec-2024 14:52 | 1279329 | ||
| MTBF1_TS_DEWT_072020.nc | 19-Dec-2024 14:57 | 1631741 | ||
| MTBF1_TS_DEWT_072021.nc | 19-Dec-2024 15:03 | 1673908 | ||
| MTBF1_TS_DEWT_072022.nc | 19-Dec-2024 15:08 | 1666094 | ||
| MTBF1_TS_DEWT_072023.nc | 19-Dec-2024 15:13 | 1679212 | ||
| MTBF1_TS_DEWT_072025.nc | 01-Aug-2025 05:59 | 1677090 | ||
| MTBF1_TS_DEWT_082014.nc | 19-Dec-2024 14:26 | 1678108 | ||
| MTBF1_TS_DEWT_082015.nc | 19-Dec-2024 14:31 | 1629742 | ||
| MTBF1_TS_DEWT_082018.nc | 19-Dec-2024 14:47 | 1096759 | ||
| MTBF1_TS_DEWT_082019.nc | 19-Dec-2024 14:53 | 1678356 | ||
| MTBF1_TS_DEWT_082020.nc | 19-Dec-2024 14:58 | 1795853 | ||
| MTBF1_TS_DEWT_082021.nc | 19-Dec-2024 15:03 | 1317464 | ||
| MTBF1_TS_DEWT_082022.nc | 19-Dec-2024 15:08 | 1674858 | ||
| MTBF1_TS_DEWT_082023.nc | 19-Dec-2024 15:14 | 1826711 | ||
| MTBF1_TS_DEWT_082025.nc | 01-Sep-2025 07:30 | 1642510 | ||
| MTBF1_TS_DEWT_092014.nc | 19-Dec-2024 14:26 | 1825893 | ||
| MTBF1_TS_DEWT_092015.nc | 19-Dec-2024 14:32 | 1835935 | ||
| MTBF1_TS_DEWT_092018.nc | 19-Dec-2024 14:47 | 1631783 | ||
| MTBF1_TS_DEWT_092019.nc | 19-Dec-2024 14:53 | 1667337 | ||
| MTBF1_TS_DEWT_092020.nc | 19-Dec-2024 14:58 | 1825129 | ||
| MTBF1_TS_DEWT_092021.nc | 19-Dec-2024 15:03 | 996159 | ||
| MTBF1_TS_DEWT_092022.nc | 19-Dec-2024 15:09 | 1647676 | ||
| MTBF1_TS_DEWT_092023.nc | 19-Dec-2024 15:14 | 1657132 | ||
| MTBF1_TS_DEWT_092025.nc | 01-Oct-2025 07:49 | 1753239 | ||
| MTBF1_TS_DEWT_102014.nc | 19-Dec-2024 14:26 | 1832031 | ||
| MTBF1_TS_DEWT_102018.nc | 19-Dec-2024 14:48 | 1647764 | ||
| MTBF1_TS_DEWT_102019.nc | 19-Dec-2024 14:53 | 1671032 | ||
| MTBF1_TS_DEWT_102020.nc | 19-Dec-2024 14:59 | 1657608 | ||
| MTBF1_TS_DEWT_102022.nc | 19-Dec-2024 15:09 | 1650507 | ||
| MTBF1_TS_DEWT_102023.nc | 19-Dec-2024 15:14 | 1656314 | ||
| MTBF1_TS_DEWT_102024.nc | 12-Jan-2025 22:21 | 1678446 | ||
| MTBF1_TS_DEWT_102025.nc | 01-Nov-2025 06:48 | 1726367 | ||
| MTBF1_TS_DEWT_112014.nc | 19-Dec-2024 14:27 | 1666784 | ||
| MTBF1_TS_DEWT_112015.nc | 19-Dec-2024 14:32 | 1825613 | ||
| MTBF1_TS_DEWT_112016.nc | 19-Dec-2024 14:37 | 1657643 | ||
| MTBF1_TS_DEWT_112018.nc | 19-Dec-2024 14:48 | 1652931 | ||
| MTBF1_TS_DEWT_112019.nc | 19-Dec-2024 14:54 | 1828977 | ||
| MTBF1_TS_DEWT_112020.nc | 19-Dec-2024 14:59 | 1652139 | ||
| MTBF1_TS_DEWT_112021.nc | 19-Dec-2024 15:04 | 1667495 | ||
| MTBF1_TS_DEWT_112022.nc | 19-Dec-2024 15:10 | 1653596 | ||
| MTBF1_TS_DEWT_112023.nc | 19-Dec-2024 15:15 | 1664803 | ||
| MTBF1_TS_DEWT_112024.nc | 17-Jan-2025 18:48 | 1661288 | ||
| MTBF1_TS_DEWT_112025.nc | 01-Dec-2025 10:33 | 1647403 | ||
| MTBF1_TS_DEWT_122014.nc | 19-Dec-2024 14:27 | 1675869 | ||
| MTBF1_TS_DEWT_122015.nc | 19-Dec-2024 14:33 | 1830111 | ||
| MTBF1_TS_DEWT_122016.nc | 19-Dec-2024 14:38 | 1682482 | ||
| MTBF1_TS_DEWT_122018.nc | 19-Dec-2024 14:49 | 1830137 | ||
| MTBF1_TS_DEWT_122019.nc | 19-Dec-2024 14:54 | 1679035 | ||
| MTBF1_TS_DEWT_122020.nc | 19-Dec-2024 15:00 | 1674992 | ||
| MTBF1_TS_DEWT_122021.nc | 19-Dec-2024 15:05 | 1809824 | ||
| MTBF1_TS_DEWT_122022.nc | 19-Dec-2024 15:10 | 1627449 | ||
| MTBF1_TS_DEWT_122023.nc | 19-Dec-2024 15:15 | 1627118 | ||
| MTBF1_TS_DEWT_122024.nc | 22-Jan-2025 19:10 | 1478360 | ||
| MTBF1_TS_DEWT_122025.nc | 01-Jan-2026 04:58 | 1627230 | ||